Retour au catalogue

COSMOS 2251 DEB

ActifLEO
NORAD 34481·DEBRIS·🇷🇺 Russia

Lancé Jun 16, 1993 depuis Plesetsk Cosmodrome

Loading…

Prochains Passages (prochaines 24 heures)

TLE

FraisSource: Space-Track

Époque: Sep 14, 2026, 10:34 UTC

1 34481U 93036UA  26257.44091733  .00000706  00000-0  25936-3 0  9995
2 34481  73.9762 267.9979 0068591  16.4109  53.4274 14.33265186913989

Suivez COSMOS 2251 DEB en temps réel avec AllMySat

Download on the App Store